Location: B?ogocice
(50.2413°N, 20.2361°E)
Time: 02:55:22
(UTC+00:00)

ALOS - Pass Details

Date: 23 September 2024
Orbit: 670 x 673 km, 98.0° (Epoch: 04 October)

Event Time Altitude Azimuth Distance (km) Brightness Sun altitude
Rises 00:58:58 0° 19° (NNE) 3,030 6.5 -30.9°
Reaches altitude 10° 01:01:18 10° 26° (NNE) 2,111 5.6 -30.7°
Enters shadow 01:05:05 41° 76° (ENE) 978 3.3 -30.3°
